Time_in_sec,Mx,My,Mz
1323445896.30248833,-0.33024982,0.51342094,-0.80041021
1323445896.35254073,-0.32885960,0.51365292,-0.80097234
1323445896.40050316,-0.33039880,0.51402676,-0.80067730
1323445896.45133448,-0.33178097,0.51485133,-0.79757613
1323445896.50153589,-0.33080694,0.51377094,-0.79878819
1323445896.55372477,-0.33046374,0.51509720,-0.79941541
1323445896.60049129,-0.33116746,0.51280844,-0.79841918
1323445896.65254974,-0.33100522,0.51414585,-0.79994744
1323445896.70434284,-0.33095691,0.51353592,-0.79917663
1323445896.75255299,-0.32984653,0.51353425,-0.80013436
1323445896.80165243,-0.33228105,0.51403558,-0.79963458
1323445896.85354018,-0.33029184,0.51318866,-0.80117470
1323445896.90053868,-0.33049539,0.51524669,-0.80221891
1323445896.95249152,-0.32973284,0.51569861,-0.80014354
1323445897.00149894,-0.33112010,0.51488864,-0.80186862
1323445897.05267477,-0.33166024,0.51199132,-0.80034989
1323445897.10221362,-0.33186111,0.51368839,-0.80139136
1323445897.15364099,-0.33163318,0.51501328,-0.80177027
1323445897.20062017,-0.33001199,0.51342231,-0.80077910
1323445897.25248909,-0.33147702,0.51344490,-0.80149597
1323445897.30163574,-0.33087689,0.51416802,-0.80223209
1323445897.35251307,-0.33034462,0.51440024,-0.80195004
1323445897.40050316,-0.33053607,0.51306838,-0.80093259
1323445897.45353127,-0.33110356,0.51346701,-0.80402178
1323445897.50049400,-0.32913625,0.51476365,-0.80341417
1323445897.55262542,-0.33129299,0.51381689,-0.80276155
1323445897.60062742,-0.33076161,0.51416939,-0.80248040
1323445897.65258646,-0.33130848,0.51394004,-0.80301791
1323445897.70054555,-0.33076352,0.51344889,-0.80260271
1323445897.75353622,-0.33230156,0.51348537,-0.80459666
1323445897.80052447,-0.33101135,0.51380992,-0.80236423
1323445897.85250306,-0.33081093,0.51393849,-0.80337262
1323445897.90190411,-0.33113456,0.51371324,-0.80453444
1323445897.95351744,-0.33028597,0.51417208,-0.80321825
1323445898.00152087,-0.33104596,0.51453739,-0.80288053
1323445898.05252528,-0.33075264,0.51296616,-0.80247134
1323445898.10051370,-0.33105606,0.51393855,-0.80313140
1323445898.15386367,-0.33086202,0.51394826,-0.80426663
1323445898.20150685,-0.33159730,0.51490963,-0.80342251
1323445898.25249648,-0.33110154,0.51514876,-0.80377901
1323445898.30177379,-0.33064261,0.51251125,-0.80513549
1323445898.34979081,-0.33077866,0.51431614,-0.80502850
1323445898.40150547,-0.33265823,0.51396400,-0.80398309
1323445898.45652890,-0.33049613,0.51418877,-0.80463022
1323445898.50153875,-0.33159372,0.51442832,-0.80341893
1323445898.55366731,-0.33114535,0.51515710,-0.80454534
1323445898.60053539,-0.33284867,0.51347303,-0.80284423
1323445898.65367341,-0.33027506,0.51368940,-0.80308688
1323445898.70163965,-0.33055210,0.51405597,-0.80335927
1323445898.75264096,-0.33215237,0.51480192,-0.80408865
1323445898.80167127,-0.33101034,0.51465076,-0.80224282
1323445898.85654426,-0.33206308,0.51358342,-0.80267477
1323445898.90154052,-0.33226204,0.51600105,-0.80359399
1323445898.95248342,-0.33098078,0.51538938,-0.80390143
1323445899.00057149,-0.33053738,0.51501441,-0.80298340
1323445899.05264807,-0.33035886,0.51514715,-0.80437493
1323445899.10251641,-0.33117852,0.51489979,-0.80289036
1323445899.15356517,-0.33117580,0.51453882,-0.80288762
1323445899.20053625,-0.33109987,0.51394689,-0.80389768
1323445899.25251245,-0.33097619,0.51574892,-0.80377644
1323445899.30051470,-0.33105326,0.51453876,-0.80300820
1323445899.35250449,-0.32951868,0.51380533,-0.80342829
1323445899.40049362,-0.33172256,0.51527059,-0.80330467
1323445899.45258403,-0.33134001,0.51505071,-0.80570096
1323445899.50240707,-0.32972169,0.51499891,-0.80230212
1323445899.55354500,-0.33116624,0.51600212,-0.80480707
1323445899.60053992,-0.33082011,0.51321936,-0.80362260
1323445899.65250564,-0.33074534,0.51296479,-0.80234367
1323445899.70054030,-0.33163393,0.51395535,-0.80418158
1323445899.75438690,-0.33096078,0.51466465,-0.80364060
1323445899.80155039,-0.33111933,0.51380712,-0.80198818
1323445899.85256147,-0.33111751,0.51356649,-0.80198640
1323445899.90116763,-0.33067355,0.51585805,-0.80299681
1323445899.95351028,-0.33044782,0.51357883,-0.80385941
1323445900.00160503,-0.33152911,0.51261377,-0.80251133
1323445900.05253792,-0.33077171,0.51357061,-0.80273134
1323445900.10153842,-0.33179593,0.51454037,-0.80241233
1323445900.15423989,-0.33165798,0.51345605,-0.80239707
1323445900.20151854,-0.33173898,0.51551408,-0.80356187
1323445900.25250936,-0.33191580,0.51417941,-0.80228901
1323445900.30290270,-0.33127683,0.51379055,-0.80021441
1323445900.35365057,-0.33209860,0.51657063,-0.80066109
1323445900.40164948,-0.33114031,0.51369101,-0.80237043
1323445900.45024014,-0.33132207,0.51478368,-0.80315197
1323445900.50062633,-0.33087191,0.51527178,-0.80427659
1323445900.55410290,-0.33019149,0.51597965,-0.80360782
1323445900.60050154,-0.33138186,0.51320976,-0.80212557
1323445900.65365982,-0.33171797,0.51563019,-0.80317962
1323445900.70196939,-0.33056289,0.51549983,-0.80337012
1323445900.75366092,-0.32999116,0.51514709,-0.80473673
1323445900.80060697,-0.33076698,0.51283729,-0.80189997
1323445900.85251546,-0.33166650,0.51452720,-0.80157936
1323445900.90054417,-0.32996735,0.51477015,-0.80352461
1323445900.94996858,-0.33041283,0.51464164,-0.80227524
1323445901.00048804,-0.33071068,0.51585299,-0.80280930
1323445901.05363059,-0.33159307,0.51452506,-0.80112809
1323445901.10193467,-0.33029172,0.51414984,-0.80105418
1323445901.15363932,-0.33129728,0.51634091,-0.80252516
1323445901.20062661,-0.32966572,0.51513171,-0.80357307
1323445901.25351381,-0.33151892,0.51417375,-0.80213994
1323445901.30063581,-0.33178696,0.51406968,-0.80374640
1323445901.35382104,-0.33066329,0.51536345,-0.80203956
1323445901.40158939,-0.33147991,0.51357728,-0.80296242
1323445901.45442867,-0.33071241,0.51395464,-0.80534142
1323445901.50449157,-0.33035606,0.51369315,-0.80366546
1323445901.55263853,-0.33147934,0.51455003,-0.80366814
1323445901.60054469,-0.33125928,0.51320976,-0.80224621
1323445901.65354156,-0.33056378,0.51562017,-0.80337107
1323445901.70056891,-0.32926533,0.51368356,-0.80354083
1323445901.75368071,-0.33018893,0.51679695,-0.80119473
1323445901.80450010,-0.33100766,0.51428980,-0.80224013
1323445901.84955835,-0.33276609,0.51492244,-0.80348659
1323445901.90054274,-0.33146834,0.51502854,-0.80341631
1323445901.95416212,-0.33142543,0.51514047,-0.80265093
1323445902.00162911,-0.33055827,0.51585943,-0.80324513
1323445902.05655074,-0.33037212,0.51320398,-0.80257952
1323445902.10053086,-0.33240336,0.51381856,-0.80180389
1323445902.15355015,-0.32953048,0.51440835,-0.80356050
1323445902.20156813,-0.33077252,0.51465207,-0.80261177
1323445902.25254440,-0.33078432,0.51525509,-0.80274397
1323445902.30239177,-0.33060333,0.51524395,-0.80184287
1323445902.35355830,-0.33096766,0.51549494,-0.80282080
1323445902.40156364,-0.33216318,0.51344746,-0.80134428
1323445902.45249820,-0.33107600,0.51474822,-0.80027586
1323445902.50055909,-0.33174577,0.51538318,-0.80286258
1323445902.55045056,-0.33050248,0.51511592,-0.80151987
1323445902.60049129,-0.33068052,0.51307261,-0.80119514
1323445902.65254998,-0.32930762,0.51366830,-0.80201536
1323445902.70203114,-0.33030674,0.51597828,-0.80335951
1323445902.75251555,-0.32769763,0.51534688,-0.80308497
1323445902.80053401,-0.32958734,0.51439589,-0.80229050
1323445902.85254025,-0.33041313,0.51381254,-0.80322266
1323445902.90150261,-0.33175907,0.51527756,-0.80394322
1323445902.95652223,-0.32957876,0.51501828,-0.80433130
1323445903.00055695,-0.33093148,0.51562029,-0.80300927
1323445903.05353618,-0.33210137,0.51383102,-0.80331510
1323445903.10313058,-0.33178315,0.51477826,-0.80215871
1323445903.15351462,-0.33026946,0.51488984,-0.80284053
1323445903.20050144,-0.33222294,0.51467192,-0.80307317
1323445903.25011897,-0.32936218,0.51512051,-0.80279255
1323445903.30051899,-0.33223945,0.51395416,-0.80345088
1323445903.35014153,-0.33156064,0.51372445,-0.80519438
1323445903.40153837,-0.33068454,0.51537955,-0.80324864
1323445903.45263577,-0.33052289,0.51405042,-0.80284840
1323445903.50211740,-0.33059758,0.51526618,-0.80400687
1323445903.55253386,-0.33108413,0.51574618,-0.80340040
1323445903.60062194,-0.33044079,0.51379448,-0.80144173
1323445903.65250683,-0.33120373,0.51429206,-0.80257058
1323445903.70052624,-0.33093178,0.51539129,-0.80447268
1323445903.75248504,-0.32951295,0.51583463,-0.80223453
1323445903.80051899,-0.33070388,0.51414669,-0.80063307
1323445903.85266995,-0.33077854,0.51536214,-0.80179125
1323445903.90259361,-0.33014202,0.51503235,-0.80512607
1323445903.95365286,-0.33130467,0.51538110,-0.80277336
1323445904.00052667,-0.33105785,0.51417923,-0.80313319
1323445904.04985023,-0.33214957,0.51540214,-0.80396545
1323445904.10062551,-0.33095014,0.51439899,-0.80121928
1323445904.14989042,-0.32997322,0.51488006,-0.80218774
1323445904.20051599,-0.33103034,0.51537549,-0.80250371
1323445904.25273824,-0.33052558,0.51441139,-0.80285114
1323445904.30173349,-0.33161676,0.51476985,-0.80151302
1323445904.35254908,-0.33079970,0.51633942,-0.80287987
1323445904.40156126,-0.33039674,0.51356912,-0.80296540
1323445904.45249653,-0.33149570,0.51391739,-0.80092931
1323445904.50050235,-0.32999772,0.51511300,-0.80174679
1323445904.54975200,-0.33066690,0.51584464,-0.80204314
1323445904.60051584,-0.33151308,0.51332009,-0.80130780
1323445904.65250945,-0.33023292,0.51378983,-0.80149567
1323445904.70126677,-0.33073077,0.51561660,-0.80319053
1323445904.75357938,-0.33044741,0.51536900,-0.80279142
1323445904.80154014,-0.33064622,0.51307786,-0.80202234
1323445904.85253143,-0.33112526,0.51451737,-0.80116785
1323445904.90163946,-0.32979834,0.51440090,-0.80287635
1323445904.95356989,-0.33003139,0.51572007,-0.80226207
1323445905.00064564,-0.33061832,0.51501787,-0.80356199
1323445905.05257273,-0.33105201,0.51428646,-0.80218041
1323445905.10386086,-0.33067620,0.51416469,-0.80241358
1323445905.15357757,-0.33218735,0.51455653,-0.80389905
1323445905.20157552,-0.33033991,0.51572102,-0.80170453
1323445905.25249958,-0.33062434,0.51512778,-0.80222511
1323445905.30155683,-0.33125865,0.51330644,-0.79995537
1323445905.35355020,-0.32919022,0.51631260,-0.80190045
1323445905.40151215,-0.33037138,0.51426184,-0.80016822
1323445905.45355844,-0.33068660,0.51378298,-0.80037498
1323445905.50244236,-0.33186129,0.51559883,-0.80032486
1323445905.55031419,-0.33075845,0.51559854,-0.80141002
1323445905.60072160,-0.33226880,0.51233983,-0.79879659
1323445905.65043640,-0.33128369,0.51462102,-0.79939532
1323445905.70055199,-0.33018723,0.51450187,-0.80060732
1323445905.75030518,-0.32893378,0.51400417,-0.79996043
1323445905.80052972,-0.33097231,0.51462018,-0.79931253
1323445905.85250783,-0.33234084,0.51246166,-0.79860818
1323445905.90228677,-0.32963499,0.51510257,-0.80077046
1323445905.95259213,-0.33055773,0.51499498,-0.80107474
1323445906.00152159,-0.33062470,0.51438361,-0.80005562
1323445906.05014253,-0.33197024,0.51402301,-0.79872632
1323445906.10063028,-0.33037138,0.51426184,-0.80016822
1323445906.15019703,-0.33102521,0.51487058,-0.80020833
1323445906.20164847,-0.33062842,0.51390374,-0.80017972
1323445906.25272870,-0.33153865,0.51425105,-0.79794049
1323445906.30429292,-0.32989419,0.51424092,-0.79861432
1323445906.35264277,-0.32859966,0.51557243,-0.80071718
1323445906.40055037,-0.33075279,0.51414442,-0.80006093
1323445906.45002651,-0.33084524,0.51401854,-0.79942858
1323445906.50051451,-0.33138010,0.51510853,-0.79959291
1323445906.55247903,-0.33024061,0.51414013,-0.80016023
1323445906.60053968,-0.33019873,0.51341122,-0.79951620
1323445906.65252280,-0.33081287,0.51535738,-0.80096400
1323445906.70158648,-0.33064651,0.51534897,-0.80031830
1323445906.75354338,-0.32983768,0.51594669,-0.80110759
1323445906.79365826,-0.32984379,0.51304156,-0.79930538
1323445906.85227227,-0.33035901,0.51737094,-0.79872793
1323445906.90050721,-0.33032876,0.51606715,-0.80062616
1323445906.94992137,-0.33021733,0.51462770,-0.80111897
1323445907.00054312,-0.33133376,0.51547146,-0.80016780
1323445907.05487466,-0.32888627,0.51447576,-0.79907006
1323445907.09387732,-0.33038047,0.51450390,-0.80029774
1323445907.15362692,-0.33000517,0.51738602,-0.80017042
1323445907.19366717,-0.32915780,0.51508158,-0.79921651
1323445907.25251007,-0.33191976,0.51958704,-0.80169117
1323445907.29365873,-0.33241802,0.51596081,-0.79952842
1323445907.34559250,-0.33069685,0.51641667,-0.79880100
1323445907.40048599,-0.33047432,0.51846343,-0.79918534
1323445907.45249915,-0.33284053,0.51549071,-0.80018473
1323445907.49372029,-0.32857415,0.51508701,-0.80033040
1323445907.55355430,-0.33152854,0.51654303,-0.79891330
1323445907.59364986,-0.33224630,0.51500160,-0.80034167
1323445907.64160705,-0.32950944,0.51749241,-0.79970056
1323445907.69264412,-0.33077109,0.51942164,-0.79889238
1323445907.74952245,-0.33001128,0.51905638,-0.79923004
1323445907.79359865,-0.32986137,0.51942450,-0.79966784
1323445907.84449267,-0.33100298,0.51774997,-0.79946375
1323445907.89357758,-0.33040914,0.51931542,-0.80020624
1323445907.94550657,-0.32905209,0.51929009,-0.79911339
1323445907.99349737,-0.32988790,0.51906908,-0.80017596
1323445908.04453754,-0.33206317,0.51786226,-0.79761297
1323445908.09350419,-0.33192128,0.51918024,-0.79723269
1323445908.14149475,-0.33162200,0.51955360,-0.79874665
1323445908.19255900,-0.33044219,0.52001929,-0.79843080
1323445908.24453378,-0.33124441,0.51822996,-0.79909849
1323445908.29444313,-0.33080551,0.51845658,-0.79818493
1323445908.34245205,-0.33082259,0.51868737,-0.79761714
1323445908.39267206,-0.33058748,0.51904958,-0.79798871
1323445908.45252013,-0.32880437,0.51975703,-0.79840535
1323445908.49355698,-0.32992965,0.51495659,-0.79830545
1323445908.54550672,-0.33078411,0.51726186,-0.79938680
1323445908.59251690,-0.33099440,0.51845652,-0.79838860
1323445908.64129567,-0.33051804,0.51737791,-0.79924583
1323445908.69430256,-0.33121899,0.51943702,-0.79993516
1323445908.74563646,-0.33073923,0.51905519,-0.79837888
1323445908.79364181,-0.33060309,0.51821166,-0.79836541
1323445908.84221315,-0.33191603,0.51822865,-0.79869193
1323445908.89421558,-0.33045366,0.51931095,-0.80014700
1323445908.94952011,-0.33136392,0.51773626,-0.79814911
1323445908.99257874,-0.33067158,0.51762408,-0.79963779
1323445909.04165030,-0.33038160,0.51941735,-0.79887104
1323445909.09418035,-0.33043051,0.51845509,-0.79841900
1323445909.14164186,-0.33067632,0.52049792,-0.79793775
1323445909.19262719,-0.33172804,0.52027142,-0.79824829
1323445909.24220705,-0.33037481,0.51880497,-0.79740000
1323445909.29409337,-0.33002540,0.51832777,-0.79814136
1323445909.34552956,-0.33221942,0.51846945,-0.79800779
1323445909.39250851,-0.33116150,0.51954615,-0.79891461
1323445909.44164228,-0.33060029,0.51881176,-0.79824227
1323445909.49366808,-0.33019260,0.51832354,-0.79796195
1323445909.54451489,-0.33046496,0.51904953,-0.79810929
1323445909.59253287,-0.33099630,0.51773614,-0.79851085
1323445909.64452672,-0.33106694,0.51966131,-0.79808050
1323445909.69365263,-0.33132115,0.51990336,-0.79796880
1323445909.74165249,-0.33148620,0.51796573,-0.79656368
1323445909.79252744,-0.33157110,0.51762146,-0.79809356
1323445909.84564352,-0.33076081,0.51832795,-0.79741776
1323445909.89252806,-0.33016700,0.51879919,-0.79745483
1323445909.94565320,-0.32987532,0.51939082,-0.79680669
1323445909.99278402,-0.33019799,0.51904529,-0.79796737
1323445910.04184008,-0.33223298,0.51747507,-0.79526740
1323445910.09252906,-0.33056879,0.51770133,-0.79555982
1323445910.14152169,-0.33096009,0.51794618,-0.79558295
1323445910.19252920,-0.33022666,0.51818657,-0.79630822
1323445910.24563980,-0.33087894,0.51781058,-0.79417747
1323445910.29374599,-0.33168715,0.51782471,-0.79473090
1323445910.34451079,-0.33140749,0.51709729,-0.79445589
1323445910.39256740,-0.33145857,0.51710701,-0.79534972
1323445910.44450712,-0.32989493,0.51829016,-0.79501802
1323445910.49368668,-0.33092931,0.51887798,-0.79266047
1323445910.54166055,-0.33065066,0.51730990,-0.79250681
1323445910.60055232,-0.33125195,0.51853245,-0.79382122
1323445910.64456344,-0.33074483,0.51528579,-0.79440677
1323445910.69249701,-0.32844403,0.51718909,-0.79467630
1323445910.74465346,-0.33093670,0.51791841,-0.79290861
1323445910.79262328,-0.33027640,0.51935071,-0.79250085
1323445910.84164381,-0.33007830,0.51801491,-0.79146230
1323445910.89272332,-0.33092672,0.51755613,-0.79277825
1323445910.94151998,-0.33047980,0.51779377,-0.79256099
1323445910.99252605,-0.33061248,0.51719499,-0.79269129
1323445911.04152560,-0.33120790,0.51779258,-0.79170966
1323445911.09351778,-0.33003592,0.51912415,-0.79369187
1323445911.14463544,-0.33012760,0.51791680,-0.79317909
1323445911.19332552,-0.33044925,0.51827919,-0.79339367
1323445911.24336529,-0.33145785,0.51816469,-0.79293889
1323445911.29250956,-0.33067894,0.51719522,-0.79301667
1323445911.34236670,-0.32985973,0.51765949,-0.79221147
1323445911.39249921,-0.33119997,0.51840246,-0.79292649
1323445911.44544697,-0.32948560,0.51873928,-0.79232597
1323445911.49249101,-0.32990661,0.51728475,-0.79081136
1323445911.54156852,-0.33114108,0.51752704,-0.78973508
1323445911.59254265,-0.32977316,0.51680213,-0.79080063
1323445911.64157724,-0.32956168,0.51837009,-0.79143655
1323445911.69355893,-0.33110422,0.51826406,-0.79126567
1323445911.74953604,-0.33046693,0.51789886,-0.79148275
1323445911.79250145,-0.32941824,0.51752520,-0.79129547
1323445911.84563971,-0.33048064,0.51778138,-0.79173720
1323445911.89422154,-0.33029482,0.51791269,-0.79300076
1323445911.94552803,-0.32879713,0.51932532,-0.79152882
1323445911.99364781,-0.33088627,0.51633614,-0.79079056
1323445912.04180002,-0.33042681,0.51850462,-0.79154468
1323445912.09264326,-0.32956651,0.51739925,-0.79021668
1323445912.14552188,-0.33024323,0.51717126,-0.79076129
1323445912.20048499,-0.33122149,0.51863623,-0.79184371
1323445912.24450779,-0.33011350,0.51607633,-0.79005039
1323445912.29405713,-0.32940185,0.51728183,-0.79103827
1323445912.34208512,-0.33010879,0.51739675,-0.78980494
1323445912.39365101,-0.32935038,0.51801610,-0.79231346
1323445912.44213891,-0.32978654,0.51956755,-0.79069370
1323445912.49263000,-0.33088899,0.51669711,-0.79079330
1323445912.54464841,-0.33123645,0.51789486,-0.78992969
1323445912.59253287,-0.33099693,0.51669437,-0.79041725
1323445912.64463234,-0.33089966,0.51910216,-0.79068369
1323445912.69391584,-0.33022997,0.51911449,-0.79255670
1323445912.74152541,-0.33088511,0.51704443,-0.78984493
1323445912.79352999,-0.32975027,0.51763868,-0.79029620
1323445912.84192181,-0.33026242,0.51668197,-0.79031742
1323445912.89250159,-0.33152202,0.51815361,-0.79179680
1323445912.94546747,-0.33094260,0.51693523,-0.79086554
1323445912.99249768,-0.32963571,0.51885426,-0.79124928
1323445913.04550505,-0.33179972,0.51790887,-0.79072440
1323445913.09378362,-0.32997891,0.51752800,-0.79062212
1323445913.14150143,-0.33191922,0.51829213,-0.79277056
1323445913.19249797,-0.33094445,0.51826966,-0.79157132
1323445913.25253701,-0.33142382,0.51778710,-0.79095757
1323445913.29252911,-0.33096930,0.51465797,-0.79161447
1323445913.34149504,-0.33194271,0.51648206,-0.79257160
1323445913.39252114,-0.32912159,0.51922035,-0.79269135
1323445913.44452333,-0.32982695,0.51717275,-0.79169714
1323445913.49364352,-0.33116338,0.51935649,-0.79216760
1323445913.54133940,-0.32980227,0.51694024,-0.79213589
1323445913.59250402,-0.33053118,0.51802057,-0.79116505
1323445913.64178824,-0.33199507,0.51984525,-0.79164004
1323445913.69265294,-0.33109713,0.51839554,-0.79196250
1323445913.74460649,-0.32970726,0.51788336,-0.79035515
1323445913.79258561,-0.33012030,0.51778263,-0.79222661
1323445913.84464979,-0.33093199,0.51923889,-0.79266322
1323445913.89349842,-0.33134362,0.51732540,-0.79330850
1323445913.94151807,-0.33118257,0.51899976,-0.79254794
1323445913.99363542,-0.33132711,0.51804298,-0.79293090
1323445914.04153299,-0.32963195,0.51802313,-0.79271072
1323445914.10221601,-0.33101258,0.51637125,-0.79442912
1323445914.14164400,-0.32989705,0.51564783,-0.79538119
1323445914.19440627,-0.32997540,0.51638347,-0.79666346
